| time (UTC) | temp F | wind direction | speed MPH | gust MPH | rain 1hr in | rain 24hr in | rain mn in | humidity % | barometer mb |
| 20260905193504 | 101 | 216 | 3.0 | 6.0 | 0.00 | 0.00 | 0.00 | 42 | 1010.8 |
| 20260905192959 | 101 | 226 | 1.0 | 4.0 | 0.00 | 0.00 | 0.00 | 43 | 1010.6 |
| 20260905192454 | 100 | 177 | 2.0 | 5.0 | 0.00 | 0.00 | 0.00 | 43 | 1010.9 |
| 20260905191950 | 101 | 221 | 6.0 | 6.0 | 0.00 | 0.00 | 0.00 | 41 | 1010.8 |
| 20260905191444 | 101 | 307 | 1.0 | 2.0 | 0.00 | 0.00 | 0.00 | 43 | 1010.9 |
| 20260905190943 | 100 | 189 | 1.0 | 6.0 | 0.00 | 0.00 | 0.00 | 44 | 1011.0 |
| 20260905190441 | 100 | 148 | 1.0 | 4.0 | 0.00 | 0.00 | 0.00 | 45 | 1011.2 |
| 20260905185940 | 99 | 295 | 3.0 | 4.0 | 0.00 | 0.00 | 0.00 | 46 | 1011.0 |
| 20260905185435 | 99 | 266 | 2.0 | 3.0 | 0.00 | 0.00 | 0.00 | 46 | 1011.1 |
| 20260905184933 | 100 | 262 | 4.0 | 5.0 | 0.00 | 0.00 | 0.00 | 45 | 1011.3 |
| 20260905184428 | 100 | 138 | 2.0 | 4.0 | 0.00 | 0.00 | 0.00 | 46 | 1011.5 |
| 20260905183927 | 98 | 255 | 0.0 | 4.0 | 0.00 | 0.00 | 0.00 | 47 | 1011.3 |
| 20260905183422 | 99 | 14 | 3.0 | 7.0 | 0.00 | 0.00 | 0.00 | 46 | 1011.6 |
| 20260905182917 | 99 | 127 | 0.0 | 4.0 | 0.00 | 0.00 | 0.00 | 49 | 1011.8 |
| 20260905182416 | 99 | 10 | 0.0 | 3.0 | 0.00 | 0.00 | 0.00 | 47 | 1011.9 |
| 20260905181912 | 99 | 102 | 0.0 | 2.0 | 0.00 | 0.00 | 0.00 | 48 | 1011.9 |
| 20260905181412 | 99 | 247 | 1.0 | 3.0 | 0.00 | 0.00 | 0.00 | 49 | 1012.0 |
| 20260905180911 | 99 | 124 | 3.0 | 3.0 | 0.00 | 0.00 | 0.00 | 48 | 1012.1 |
| 20260905180407 | 98 | 260 | 2.0 | 2.0 | 0.00 | 0.00 | 0.00 | 50 | 1012.1 |
| 20260905175907 | 98 | 86 | 0.0 | 5.0 | 0.00 | 0.00 | 0.00 | 49 | 1012.1 |
| 20260905175407 | 98 | 218 | 0.0 | 4.0 | 0.00 | 0.00 | 0.00 | 48 | 1012.0 |
| 20260905174907 | 97 | 265 | 0.0 | 4.0 | 0.00 | 0.00 | 0.00 | 52 | 1012.2 |
| 20260905174403 | 97 | 231 | 3.0 | 4.0 | 0.00 | 0.00 | 0.00 | 50 | 1012.3 |
| 20260905173858 | 98 | 216 | 4.0 | 5.0 | 0.00 | 0.00 | 0.00 | 51 | 1012.3 |
| 20260905173354 | 98 | 123 | 1.0 | 4.0 | 0.00 | 0.00 | 0.00 | 51 | 1012.3 |
| 20260905172849 | 98 | 357 | 0.0 | 3.0 | 0.00 | 0.00 | 0.00 | 50 | 1012.4 |
| 20260905172347 | 97 | 316 | 0.0 | 3.0 | 0.00 | 0.00 | 0.00 | 52 | 1012.5 |
| 20260905171843 | 97 | 286 | 3.0 | 4.0 | 0.00 | 0.00 | 0.00 | 53 | 1012.5 |
| 20260905171340 | 97 | 246 | 1.0 | 4.0 | 0.00 | 0.00 | 0.00 | 55 | 1012.4 |
| 20260905170836 | 96 | 256 | 1.0 | 4.0 | 0.00 | 0.00 | 0.00 | 54 | 1012.7 |
| 20260905170332 | 95 | 219 | 4.0 | 4.0 | 0.00 | 0.00 | 0.00 | 54 | 1012.5 |
| 20260905165831 | 95 | 218 | 3.0 | 5.0 | 0.00 | 0.00 | 0.00 | 54 | 1012.5 |
| 20260905165326 | 95 | 280 | 3.0 | 4.0 | 0.00 | 0.00 | 0.00 | 54 | 1012.8 |
| 20260905164827 | 95 | 185 | 1.0 | 4.0 | 0.00 | 0.00 | 0.00 | 54 | 1012.8 |
| 20260905164326 | 95 | 259 | 3.0 | 4.0 | 0.00 | 0.00 | 0.00 | 56 | 1012.9 |
| 20260905163822 | 94 | 217 | 0.0 | 3.0 | 0.00 | 0.00 | 0.00 | 55 | 1013.0 |
| 20260905163319 | 93 | 225 | 3.0 | 5.0 | 0.00 | 0.00 | 0.00 | 57 | 1013.0 |
| 20260905162814 | 93 | 274 | 2.0 | 3.0 | 0.00 | 0.00 | 0.00 | 56 | 1013.1 |
| 20260905162309 | 93 | 269 | 2.0 | 3.0 | 0.00 | 0.00 | 0.00 | 57 | 1013.2 |
| 20260905161809 | 93 | 211 | 2.0 | 4.0 | 0.00 | 0.00 | 0.00 | 58 | 1013.1 |
| 20260905161308 | 92 | 234 | 2.0 | 3.0 | 0.00 | 0.00 | 0.00 | 61 | 1013.3 |
| 20260905160806 | 92 | 279 | 2.0 | 4.0 | 0.00 | 0.00 | 0.00 | 61 | 1013.3 |
| 20260905160300 | 92 | 258 | 2.0 | 4.0 | 0.00 | 0.00 | 0.00 | 59 | 1013.4 |
| 20260905155755 | 91 | 286 | 2.0 | 3.0 | 0.00 | 0.00 | 0.00 | 61 | 1013.4 |
| 20260905155254 | 91 | 303 | 1.0 | 4.0 | 0.00 | 0.00 | 0.00 | 61 | 1013.4 |
| 20260905154748 | 90 | 104 | 0.0 | 2.0 | 0.00 | 0.00 | 0.00 | 66 | 1013.6 |
| 20260905154245 | 89 | 319 | 0.0 | 4.0 | 0.00 | 0.00 | 0.00 | 64 | 1013.5 |
| 20260905153740 | 89 | 264 | 0.0 | 3.0 | 0.00 | 0.00 | 0.00 | 67 | 1013.5 |
| 20260905153236 | 88 | 110 | 2.0 | 2.0 | 0.00 | 0.00 | 0.00 | 69 | 1013.8 |
| 20260905152731 | 88 | 294 | 0.0 | 2.0 | 0.00 | 0.00 | 0.00 | 71 | 1013.7 |
| 20260905152230 | 88 | 129 | 2.0 | 3.0 | 0.00 | 0.00 | 0.00 | 68 | 1013.7 |
| 20260905151730 | 88 | 124 | 0.0 | 3.0 | 0.00 | 0.00 | 0.00 | 70 | 1013.5 |
| 20260905151226 | 87 | 119 | 2.0 | 3.0 | 0.00 | 0.00 | 0.00 | 72 | 1013.6 |
| 20260905150721 | 85 | 106 | 0.0 | 2.0 | 0.00 | 0.00 | 0.00 | 76 | 1013.7 |
| 20260905150220 | 84 | 221 | 0.0 | 1.0 | 0.00 | 0.00 | 0.00 | 79 | 1013.8 |
| 20260905145718 | 84 | 126 | 0.0 | 2.0 | 0.00 | 0.00 | 0.00 | 80 | 1013.8 |
| 20260905145213 | 83 | 295 | 2.0 | 2.0 | 0.00 | 0.00 | 0.00 | 79 | 1013.6 |
| 20260905144712 | 84 | 302 | 0.0 | 2.0 | 0.00 | 0.00 | 0.00 | 80 | 1013.7 |
| 20260905144211 | 84 | 265 | 0.0 | 2.0 | 0.00 | 0.00 | 0.00 | 80 | 1013.9 |
| 20260905143706 | 84 | 340 | 2.0 | 2.0 | 0.00 | 0.00 | 0.00 | 77 | 1013.8 |
| 20260905143206 | 84 | 340 | 2.0 | 2.0 | 0.00 | 0.00 | 0.00 | 77 | 1013.8 |
| 20260905142704 | 84 | 64 | 0.0 | 2.0 | 0.00 | 0.00 | 0.00 | 78 | 1013.7 |
| 20260905142205 | 84 | 333 | 0.0 | 1.0 | 0.00 | 0.00 | 0.00 | 80 | 1013.8 |
| 20260905141700 | 83 | 330 | 1.0 | 2.0 | 0.00 | 0.00 | 0.00 | 80 | 1013.8 |
| 20260905141156 | 83 | 53 | 0.0 | 1.0 | 0.00 | 0.00 | 0.00 | 82 | 1013.9 |
| 20260905140651 | 83 | 275 | 0.0 | 2.0 | 0.00 | 0.00 | 0.00 | 82 | 1013.9 |
| 20260905140150 | 82 | 116 | 1.0 | 2.0 | 0.00 | 0.00 | 0.00 | 82 | 1013.9 |
| 20260905135646 | 82 | 55 | 0.0 | 1.0 | 0.00 | 0.00 | 0.00 | 82 | 1013.8 |
| 20260905135141 | 82 | 118 | 2.0 | 2.0 | 0.00 | 0.00 | 0.00 | 83 | 1013.8 |
| 20260905134635 | 82 | 141 | 0.0 | 2.0 | 0.00 | 0.00 | 0.00 | 83 | 1013.8 |
| 20260905134134 | 82 | 94 | 1.0 | 2.0 | 0.00 | 0.00 | 0.00 | 85 | 1013.8 |
| 20260905133630 | 82 | 97 | 1.0 | 2.0 | 0.00 | 0.00 | 0.00 | 85 | 1014.0 |
| 20260905133130 | 81 | 77 | 1.0 | 2.0 | 0.00 | 0.00 | 0.00 | 85 | 1013.8 |
| 20260905132630 | 81 | 85 | 1.0 | 2.0 | 0.00 | 0.00 | 0.00 | 85 | 1013.8 |
| 20260905132125 | 81 | 100 | 0.0 | 2.0 | 0.00 | 0.00 | 0.00 | 86 | 1013.7 |
| 20260905131620 | 81 | 95 | 1.0 | 2.0 | 0.00 | 0.00 | 0.00 | 86 | 1013.8 |
| 20260905131115 | 81 | 131 | 1.0 | 2.0 | 0.00 | 0.00 | 0.00 | 86 | 1013.9 |
| 20260905130614 | 81 | 99 | 1.0 | 3.0 | 0.00 | 0.00 | 0.00 | 86 | 1014.0 |
| 20260905130109 | 80 | 103 | 1.0 | 2.0 | 0.00 | 0.00 | 0.00 | 87 | 1013.9 |
| 20260905125609 | 80 | 112 | 1.0 | 2.0 | 0.00 | 0.00 | 0.00 | 88 | 1013.8 |
| 20260905125104 | 80 | 100 | 2.0 | 2.0 | 0.00 | 0.00 | 0.00 | 90 | 1014.0 |
| 20260905124601 | 80 | 96 | 1.0 | 2.0 | 0.00 | 0.00 | 0.00 | 92 | 1014.0 |
| 20260905124056 | 79 | 98 | 0.0 | 1.0 | 0.00 | 0.00 | 0.00 | 93 | 1013.9 |
| 20260905123551 | 79 | 49 | 0.0 | 1.0 | 0.00 | 0.00 | 0.00 | 94 | 1014.0 |
| 20260905123049 | 78 | 89 | 0.0 | 2.0 | 0.00 | 0.00 | 0.00 | 95 | 1013.9 |
| 20260905122548 | 78 | 53 | 0.0 | 2.0 | 0.00 | 0.00 | 0.00 | 96 | 1013.7 |
| 20260905122043 | 78 | 60 | 1.0 | 2.0 | 0.00 | 0.00 | 0.00 | 97 | 1013.6 |
| 20260905121538 | 77 | 54 | 1.0 | 2.0 | 0.00 | 0.00 | 0.00 | 97 | 1013.8 |
| 20260905121033 | 77 | 61 | 1.0 | 2.0 | 0.00 | 0.00 | 0.00 | 96 | 1013.6 |
| 20260905120532 | 77 | 72 | 0.0 | 2.0 | 0.00 | 0.00 | 0.00 | 97 | 1013.6 |
| 20260905120028 | 77 | 66 | 1.0 | 2.0 | 0.00 | 0.00 | 0.00 | 96 | 1013.6 |
| 20260905115526 | 76 | 44 | 2.0 | 2.0 | 0.00 | 0.00 | 0.00 | 96 | 1013.5 |
| 20260905115021 | 76 | 81 | 0.0 | 2.0 | 0.00 | 0.00 | 0.00 | 96 | 1013.4 |
| 20260905114521 | 76 | 68 | 0.0 | 2.0 | 0.00 | 0.00 | 0.00 | 96 | 1013.3 |
| 20260905114020 | 76 | 85 | 1.0 | 2.0 | 0.00 | 0.00 | 0.00 | 96 | 1013.4 |
| 20260905113515 | 76 | 89 | 0.0 | 2.0 | 0.00 | 0.00 | 0.00 | 96 | 1013.3 |
| 20260905113011 | 76 | 65 | 1.0 | 2.0 | 0.00 | 0.00 | 0.00 | 96 | 1013.2 |
| 20260905112506 | 76 | 70 | 0.0 | 2.0 | 0.00 | 0.00 | 0.00 | 96 | 1013.0 |
| 20260905112001 | 76 | 69 | 1.0 | 2.0 | 0.00 | 0.00 | 0.00 | 96 | 1013.1 |
| 20260905111501 | 76 | 37 | 0.0 | 2.0 | 0.00 | 0.00 | 0.00 | 96 | 1013.1 |
| 20260905110955 | 76 | 72 | 0.0 | 2.0 | 0.00 | 0.00 | 0.00 | 96 | 1012.9 |
| 20260905110454 | 76 | 79 | 1.0 | 2.0 | 0.00 | 0.00 | 0.00 | 96 | 1012.7 |
| 20260905105955 | 76 | 73 | 0.0 | 2.0 | 0.00 | 0.00 | 0.00 | 95 | 1012.9 |
| 20260905105454 | 76 | 58 | 0.0 | 2.0 | 0.00 | 0.00 | 0.00 | 95 | 1012.7 |
| 20260905104949 | 76 | 77 | 1.0 | 2.0 | 0.00 | 0.00 | 0.00 | 95 | 1013.0 |
| 20260905104445 | 76 | 88 | 2.0 | 2.0 | 0.00 | 0.00 | 0.00 | 95 | 1012.6 |
| 20260905103945 | 76 | 32 | 1.0 | 2.0 | 0.00 | 0.00 | 0.00 | 95 | 1012.7 |
| 20260905103440 | 76 | 51 | 2.0 | 2.0 | 0.00 | 0.00 | 0.00 | 95 | 1012.6 |
| 20260905102936 | 76 | 72 | 2.0 | 2.0 | 0.00 | 0.00 | 0.00 | 95 | 1012.6 |
| 20260905102432 | 76 | 61 | 2.0 | 2.0 | 0.00 | 0.00 | 0.00 | 95 | 1012.6 |
| 20260905101927 | 76 | 72 | 0.0 | 2.0 | 0.00 | 0.00 | 0.00 | 95 | 1012.6 |
| 20260905101425 | 76 | 91 | 1.0 | 2.0 | 0.00 | 0.00 | 0.00 | 95 | 1012.7 |
| 20260905100920 | 76 | 70 | 1.0 | 2.0 | 0.00 | 0.00 | 0.00 | 95 | 1012.5 |
| 20260905100416 | 76 | 77 | 1.0 | 2.0 | 0.00 | 0.00 | 0.00 | 95 | 1012.5 |
| 20260905095915 | 76 | 58 | 2.0 | 3.0 | 0.00 | 0.00 | 0.00 | 95 | 1012.5 |
| 20260905095410 | 76 | 81 | 1.0 | 2.0 | 0.00 | 0.00 | 0.00 | 94 | 1012.3 |
| 20260905094910 | 77 | 59 | 0.0 | 2.0 | 0.00 | 0.00 | 0.00 | 94 | 1012.3 |
| 20260905094406 | 77 | 53 | 1.0 | 2.0 | 0.00 | 0.00 | 0.00 | 94 | 1012.4 |
| 20260905093905 | 77 | 53 | 1.0 | 2.0 | 0.00 | 0.00 | 0.00 | 94 | 1012.4 |
| 20260905093401 | 77 | 83 | 1.0 | 2.0 | 0.00 | 0.00 | 0.00 | 94 | 1012.4 |
| 20260905092856 | 77 | 27 | 0.0 | 2.0 | 0.00 | 0.00 | 0.00 | 94 | 1012.2 |
| 20260905092357 | 77 | 79 | 1.0 | 2.0 | 0.00 | 0.00 | 0.00 | 94 | 1012.2 |
| 20260905091856 | 77 | 70 | 0.0 | 2.0 | 0.00 | 0.00 | 0.00 | 94 | 1012.1 |
| 20260905091356 | 77 | 68 | 1.0 | 2.0 | 0.00 | 0.00 | 0.00 | 94 | 1012.2 |
| 20260905090855 | 77 | 70 | 1.0 | 2.0 | 0.00 | 0.00 | 0.00 | 94 | 1012.3 |
| 20260905090351 | 77 | 75 | 0.0 | 2.0 | 0.00 | 0.00 | 0.00 | 94 | 1012.2 |
| 20260905085850 | 77 | 38 | 1.0 | 2.0 | 0.00 | 0.00 | 0.00 | 94 | 1012.2 |
| 20260905085345 | 77 | 66 | 2.0 | 3.0 | 0.00 | 0.00 | 0.00 | 94 | 1012.3 |
| 20260905084841 | 77 | 85 | 1.0 | 2.0 | 0.00 | 0.00 | 0.00 | 93 | 1012.3 |
| 20260905084340 | 77 | 63 | 1.0 | 2.0 | 0.00 | 0.00 | 0.00 | 93 | 1012.4 |
| 20260905083835 | 77 | 84 | 0.0 | 2.0 | 0.00 | 0.00 | 0.00 | 93 | 1012.1 |
| 20260905083331 | 77 | 86 | 1.0 | 2.0 | 0.00 | 0.00 | 0.00 | 93 | 1012.3 |
| 20260905082826 | 77 | 62 | 0.0 | 2.0 | 0.00 | 0.00 | 0.00 | 93 | 1012.4 |
| 20260905082323 | 77 | 76 | 1.0 | 2.0 | 0.00 | 0.00 | 0.00 | 93 | 1012.5 |
| 20260905081823 | 77 | 89 | 0.0 | 1.0 | 0.00 | 0.00 | 0.00 | 93 | 1012.4 |
| 20260905081318 | 77 | 70 | 1.0 | 2.0 | 0.00 | 0.00 | 0.00 | 93 | 1012.4 |
| 20260905080817 | 77 | 60 | 1.0 | 2.0 | 0.00 | 0.00 | 0.00 | 92 | 1012.4 |
| 20260905080312 | 77 | 63 | 1.0 | 2.0 | 0.00 | 0.00 | 0.00 | 92 | 1012.3 |
| 20260905075810 | 77 | 89 | 0.0 | 2.0 | 0.00 | 0.00 | 0.00 | 92 | 1012.4 |
| 20260905075310 | 78 | 76 | 0.0 | 2.0 | 0.00 | 0.00 | 0.00 | 92 | 1012.5 |
| 20260905074809 | 78 | 105 | 2.0 | 2.0 | 0.00 | 0.00 | 0.00 | 92 | 1012.4 |
| 20260905074306 | 78 | 326 | 0.0 | 2.0 | 0.00 | 0.00 | 0.00 | 92 | 1012.2 |
| 20260905073801 | 77 | 296 | 0.0 | 1.0 | 0.00 | 0.00 | 0.00 | 92 | 1012.3 |
| 20260905073256 | 77 | 73 | 1.0 | 2.0 | 0.00 | 0.00 | 0.00 | 92 | 1012.3 |
| 20260905072755 | 78 | 89 | 1.0 | 2.0 | 0.00 | 0.00 | 0.00 | 91 | 1012.5 |
| 20260905072251 | 78 | 82 | 1.0 | 2.0 | 0.00 | 0.00 | 0.00 | 91 | 1012.5 |
| 20260905071748 | 78 | 73 | 1.0 | 2.0 | 0.00 | 0.00 | 0.00 | 91 | 1012.4 |
| 20260905071243 | 78 | 62 | 0.0 | 2.0 | 0.00 | 0.00 | 0.00 | 90 | 1012.3 |
| 20260905070738 | 78 | 52 | 1.0 | 2.0 | 0.00 | 0.00 | 0.00 | 90 | 1012.4 |
| 20260905070234 | 78 | 76 | 1.0 | 2.0 | 0.00 | 0.00 | 0.00 | 90 | 1012.6 |
| 20260905065733 | 78 | 88 | 2.0 | 2.0 | 0.00 | 0.00 | 0.00 | 90 | 1012.7 |
| 20260905065227 | 78 | 31 | 0.0 | 2.0 | 0.00 | 0.00 | 0.00 | 90 | 1012.7 |
| 20260905064722 | 78 | 41 | 0.0 | 2.0 | 0.00 | 0.00 | 0.00 | 88 | 1012.6 |
| 20260905064218 | 78 | 45 | 0.0 | 2.0 | 0.00 | 0.00 | 0.00 | 88 | 1012.6 |
| 20260905063716 | 78 | 65 | 2.0 | 2.0 | 0.00 | 0.00 | 0.00 | 88 | 1012.8 |
| 20260905063213 | 78 | 92 | 2.0 | 2.0 | 0.00 | 0.00 | 0.00 | 88 | 1012.6 |
| 20260905062708 | 78 | 52 | 0.0 | 2.0 | 0.00 | 0.00 | 0.00 | 87 | 1012.7 |
| 20260905062208 | 78 | 82 | 1.0 | 2.0 | 0.00 | 0.00 | 0.00 | 87 | 1012.7 |
| 20260905061708 | 79 | 64 | 0.0 | 2.0 | 0.00 | 0.00 | 0.00 | 87 | 1012.7 |
| 20260905061202 | 79 | 78 | 0.0 | 2.0 | 0.00 | 0.00 | 0.00 | 86 | 1012.6 |
| 20260905060657 | 79 | 70 | 2.0 | 2.0 | 0.00 | 0.00 | 0.00 | 86 | 1012.7 |
| 20260905060154 | 79 | 87 | 1.0 | 2.0 | 0.00 | 0.00 | 0.00 | 86 | 1012.7 |
| 20260905055652 | 79 | 65 | 2.0 | 2.0 | 0.00 | 0.00 | 0.00 | 86 | 1012.6 |
| 20260905055148 | 79 | 62 | 2.0 | 3.0 | 0.00 | 0.00 | 0.00 | 86 | 1012.8 |
| 20260905054643 | 79 | 83 | 0.0 | 3.0 | 0.00 | 0.00 | 0.00 | 86 | 1012.6 |
| 20260905054139 | 79 | 83 | 0.0 | 2.0 | 0.00 | 0.00 | 0.00 | 85 | 1012.8 |
| 20260905053638 | 79 | 60 | 0.0 | 2.0 | 0.00 | 0.00 | 0.00 | 85 | 1012.7 |
| 20260905053133 | 79 | 85 | 1.0 | 3.0 | 0.00 | 0.00 | 0.00 | 84 | 1012.7 |
| 20260905052633 | 79 | 86 | 0.0 | 2.0 | 0.00 | 0.00 | 0.00 | 84 | 1012.5 |
| 20260905052128 | 79 | 83 | 2.0 | 2.0 | 0.00 | 0.00 | 0.00 | 84 | 1012.8 |
| 20260905051623 | 79 | 68 | 1.0 | 2.0 | 0.00 | 0.00 | 0.00 | 83 | 1012.8 |
| 20260905051120 | 80 | 74 | 1.0 | 2.0 | 0.00 | 0.00 | 0.00 | 83 | 1012.6 |
| 20260905050616 | 80 | 103 | 0.0 | 2.0 | 0.00 | 0.00 | 0.00 | 83 | 1012.5 |
| 20260905050112 | 80 | 111 | 0.0 | 1.0 | 0.00 | 0.00 | 0.00 | 83 | 1012.7 |
| 20260905045612 | 80 | 49 | 2.0 | 2.0 | 0.00 | 0.00 | 0.00 | 82 | 1012.7 |
| 20260905045108 | 80 | 37 | 0.0 | 2.0 | 0.00 | 0.00 | 0.00 | 82 | 1012.6 |
| 20260905044607 | 80 | 151 | 0.0 | 1.0 | 0.00 | 0.00 | 0.00 | 82 | 1012.5 |
| 20260905044102 | 80 | 111 | 1.0 | 2.0 | 0.00 | 0.00 | 0.00 | 81 | 1012.7 |
| 20260905043601 | 80 | 82 | 0.0 | 2.0 | 0.00 | 0.00 | 0.00 | 81 | 1012.6 |
| 20260905043057 | 81 | 50 | 0.0 | 2.0 | 0.00 | 0.00 | 0.00 | 80 | 1012.7 |
| 20260905042555 | 81 | 50 | 0.0 | 2.0 | 0.00 | 0.00 | 0.00 | 80 | 1012.8 |
| 20260905042051 | 81 | 89 | 1.0 | 2.0 | 0.00 | 0.00 | 0.00 | 79 | 1013.1 |
| 20260905041546 | 81 | 68 | 0.0 | 3.0 | 0.00 | 0.00 | 0.00 | 80 | 1012.8 |
| 20260905041041 | 81 | 80 | 0.0 | 2.0 | 0.00 | 0.00 | 0.00 | 79 | 1012.8 |
| 20260905040541 | 81 | 59 | 1.0 | 2.0 | 0.00 | 0.00 | 0.00 | 79 | 1012.9 |
| 20260905040039 | 81 | 47 | 2.0 | 2.0 | 0.00 | 0.00 | 0.00 | 79 | 1012.8 |
| 20260905035535 | 81 | 74 | 0.0 | 2.0 | 0.00 | 0.00 | 0.00 | 79 | 1013.0 |
| 20260905035032 | 82 | 83 | 2.0 | 2.0 | 0.00 | 0.00 | 0.00 | 78 | 1013.0 |
| 20260905034528 | 82 | 58 | 1.0 | 2.0 | 0.00 | 0.00 | 0.00 | 77 | 1013.0 |
| 20260905034027 | 82 | 57 | 0.0 | 2.0 | 0.00 | 0.00 | 0.00 | 77 | 1013.1 |
| 20260905033526 | 82 | 97 | 1.0 | 2.0 | 0.00 | 0.00 | 0.00 | 76 | 1013.2 |
| 20260905033022 | 83 | 51 | 1.0 | 2.0 | 0.00 | 0.00 | 0.00 | 75 | 1013.3 |
| 20260905032517 | 83 | 60 | 1.0 | 2.0 | 0.00 | 0.00 | 0.00 | 75 | 1013.2 |
| 20260905032012 | 83 | 82 | 1.0 | 2.0 | 0.00 | 0.00 | 0.00 | 75 | 1013.1 |
| 20260905031508 | 83 | 68 | 1.0 | 2.0 | 0.00 | 0.00 | 0.00 | 74 | 1013.2 |
| 20260905031003 | 84 | 83 | 0.0 | 2.0 | 0.00 | 0.00 | 0.00 | 73 | 1013.2 |
| 20260905030458 | 84 | 53 | 0.0 | 2.0 | 0.00 | 0.00 | 0.00 | 73 | 1013.3 |
| 20260905025957 | 84 | 60 | 0.0 | 2.0 | 0.00 | 0.00 | 0.00 | 72 | 1013.3 |
| 20260905025453 | 84 | 60 | 0.0 | 2.0 | 0.00 | 0.00 | 0.00 | 71 | 1013.4 |
| 20260905024949 | 85 | 24 | 1.0 | 2.0 | 0.00 | 0.00 | 0.00 | 72 | 1013.3 |
| 20260905024449 | 85 | 101 | 0.0 | 2.0 | 0.00 | 0.00 | 0.00 | 71 | 1013.2 |
| 20260905023945 | 85 | 58 | 0.0 | 2.0 | 0.00 | 0.00 | 0.00 | 70 | 1013.3 |
| 20260905023440 | 85 | 45 | 0.0 | 2.0 | 0.00 | 0.00 | 0.00 | 70 | 1013.2 |
| 20260905022939 | 84 | 59 | 2.0 | 5.0 | 0.00 | 0.00 | 0.00 | 72 | 1013.4 |
| 20260905022434 | 84 | 76 | 2.0 | 2.0 | 0.00 | 0.00 | 0.00 | 72 | 1013.2 |
| 20260905021929 | 85 | 113 | 0.0 | 1.0 | 0.00 | 0.00 | 0.00 | 71 | 1013.2 |
| 20260905021429 | 85 | 112 | 1.0 | 1.0 | 0.00 | 0.00 | 0.00 | 71 | 1013.1 |
| 20260905020930 | 85 | 47 | 0.0 | 1.0 | 0.00 | 0.00 | 0.00 | 70 | 1013.1 |
| 20260905020430 | 86 | 66 | 0.0 | 2.0 | 0.00 | 0.00 | 0.00 | 68 | 1013.1 |
| 20260905015929 | 86 | 86 | 0.0 | 2.0 | 0.00 | 0.00 | 0.00 | 67 | 1013.0 |
| 20260905015428 | 86 | 311 | 0.0 | 0.0 | 0.00 | 0.00 | 0.00 | 66 | 1013.1 |
| 20260905014927 | 87 | 89 | 0.0 | 2.0 | 0.00 | 0.00 | 0.00 | 66 | 1013.0 |
| 20260905014423 | 87 | 0 | 0.0 | 1.0 | 0.00 | 0.00 | 0.00 | 64 | 1013.1 |
| 20260905013918 | 87 | 323 | 0.0 | 2.0 | 0.00 | 0.00 | 0.00 | 65 | 1012.9 |
| 20260905013414 | 87 | 36 | 0.0 | 2.0 | 0.00 | 0.00 | 0.00 | 64 | 1013.1 |
| 20260905012909 | 88 | 58 | 0.0 | 2.0 | 0.00 | 0.00 | 0.00 | 64 | 1012.8 |
| 20260905012404 | 88 | 46 | 2.0 | 2.0 | 0.00 | 0.00 | 0.00 | 63 | 1012.9 |
| 20260905011902 | 88 | 115 | 1.0 | 3.0 | 0.00 | 0.00 | 0.00 | 62 | 1013.0 |
| 20260905011356 | 89 | 237 | 0.0 | 1.0 | 0.00 | 0.00 | 0.00 | 62 | 1012.8 |
| 20260905010852 | 89 | 52 | 0.0 | 1.0 | 0.00 | 0.00 | 0.00 | 62 | 1013.0 |
| 20260905010347 | 89 | 103 | 0.0 | 3.0 | 0.00 | 0.00 | 0.00 | 60 | 1012.7 |
| 20260905005843 | 89 | 117 | 2.0 | 2.0 | 0.00 | 0.00 | 0.00 | 60 | 1012.8 |
| 20260905005339 | 90 | 100 | 1.0 | 4.0 | 0.00 | 0.00 | 0.00 | 59 | 1012.7 |
| 20260905004834 | 90 | 105 | 2.0 | 3.0 | 0.00 | 0.00 | 0.00 | 59 | 1012.8 |
| 20260905004334 | 90 | 20 | 0.0 | 2.0 | 0.00 | 0.00 | 0.00 | 59 | 1012.8 |
| 20260905003830 | 91 | 64 | 0.0 | 3.0 | 0.00 | 0.00 | 0.00 | 57 | 1012.8 |
| 20260905003325 | 90 | 153 | 2.0 | 4.0 | 0.00 | 0.00 | 0.00 | 58 | 1012.7 |
| 20260905002821 | 89 | 114 | 2.0 | 3.0 | 0.00 | 0.00 | 0.00 | 59 | 1012.8 |
| 20260905002320 | 89 | 133 | 2.0 | 2.0 | 0.00 | 0.00 | 0.00 | 62 | 1012.7 |
| 20260905001815 | 89 | 109 | 0.0 | 2.0 | 0.00 | 0.00 | 0.00 | 62 | 1012.7 |
| 20260905001315 | 90 | 82 | 0.0 | 2.0 | 0.00 | 0.00 | 0.00 | 61 | 1012.6 |
| 20260905000811 | 90 | 44 | 0.0 | 1.0 | 0.00 | 0.00 | 0.00 | 60 | 1012.6 |
| 20260905000306 | 91 | 89 | 1.0 | 2.0 | 0.00 | 0.00 | 0.00 | 59 | 1012.5 |
| 20260904235801 | 91 | 44 | 0.0 | 2.0 | 0.00 | 0.00 | 0.00 | 58 | 1012.5 |
| 20260904235256 | 92 | 125 | 1.0 | 2.0 | 0.00 | 0.00 | 0.00 | 57 | 1012.5 |
| 20260904234751 | 92 | 62 | 0.0 | 2.0 | 0.00 | 0.00 | 0.00 | 56 | 1012.3 |
| 20260904234246 | 93 | 31 | 0.0 | 1.0 | 0.00 | 0.00 | 0.00 | 55 | 1012.4 |
| 20260904233741 | 93 | 113 | 0.0 | 1.0 | 0.00 | 0.00 | 0.00 | 55 | 1012.2 |
| 20260904233238 | 94 | 88 | 0.0 | 1.0 | 0.00 | 0.00 | 0.00 | 51 | 1012.4 |
| 20260904232734 | 94 | 92 | 0.0 | 1.0 | 0.00 | 0.00 | 0.00 | 51 | 1012.3 |
| 20260904232230 | 94 | 49 | 0.0 | 2.0 | 0.00 | 0.00 | 0.00 | 49 | 1012.1 |
| 20260904231725 | 95 | 89 | 1.0 | 1.0 | 0.00 | 0.00 | 0.00 | 49 | 1012.1 |
| 20260904231221 | 95 | 5 | 1.0 | 2.0 | 0.00 | 0.00 | 0.00 | 48 | 1012.0 |
| 20260904230720 | 95 | 342 | 2.0 | 4.0 | 0.00 | 0.00 | 0.00 | 47 | 1012.1 |
| 20260904230215 | 96 | 44 | 1.0 | 2.0 | 0.00 | 0.00 | 0.00 | 48 | 1011.9 |
| 20260904225714 | 96 | 355 | 1.0 | 2.0 | 0.00 | 0.00 | 0.00 | 47 | 1012.0 |
| 20260904225208 | 96 | 305 | 0.0 | 2.0 | 0.00 | 0.00 | 0.00 | 47 | 1012.3 |
| 20260904224707 | 96 | 61 | 1.0 | 1.0 | 0.00 | 0.00 | 0.00 | 48 | 1012.1 |
| 20260904224203 | 95 | 57 | 0.0 | 1.0 | 0.00 | 0.00 | 0.00 | 48 | 1012.0 |
| 20260904223702 | 96 | 5 | 1.0 | 2.0 | 0.00 | 0.00 | 0.00 | 46 | 1012.1 |
| 20260904223157 | 96 | 349 | 2.0 | 4.0 | 0.00 | 0.00 | 0.00 | 44 | 1012.1 |
| 20260904222653 | 96 | 338 | 2.0 | 3.0 | 0.00 | 0.00 | 0.00 | 45 | 1012.1 |
| 20260904222148 | 96 | 347 | 2.0 | 2.0 | 0.00 | 0.00 | 0.00 | 45 | 1012.1 |
| 20260904221647 | 97 | 356 | 2.0 | 3.0 | 0.00 | 0.00 | 0.00 | 44 | 1012.0 |
| 20260904221143 | 97 | 348 | 2.0 | 3.0 | 0.00 | 0.00 | 0.00 | 44 | 1011.8 |
| 20260904220637 | 98 | 350 | 2.0 | 2.0 | 0.00 | 0.00 | 0.00 | 42 | 1012.0 |
| 20260904220133 | 99 | 338 | 0.0 | 3.0 | 0.00 | 0.00 | 0.00 | 42 | 1011.9 |
| 20260904215633 | 99 | 348 | 2.0 | 6.0 | 0.00 | 0.00 | 0.00 | 41 | 1012.0 |
| 20260904215129 | 100 | 322 | 3.0 | 4.0 | 0.00 | 0.00 | 0.00 | 40 | 1012.2 |
| 20260904214629 | 100 | 342 | 3.0 | 4.0 | 0.00 | 0.00 | 0.00 | 40 | 1012.4 |
| 20260904214125 | 100 | 352 | 2.0 | 3.0 | 0.00 | 0.00 | 0.00 | 40 | 1012.1 |
| 20260904213622 | 99 | 315 | 2.0 | 4.0 | 0.00 | 0.00 | 0.00 | 43 | 1012.1 |
| 20260904213119 | 100 | 38 | 1.0 | 3.0 | 0.00 | 0.00 | 0.00 | 42 | 1012.2 |
| 20260904212620 | 100 | 92 | 2.0 | 4.0 | 0.00 | 0.00 | 0.00 | 41 | 1012.0 |
| 20260904212114 | 100 | 107 | 1.0 | 3.0 | 0.00 | 0.00 | 0.00 | 43 | 1012.1 |
| 20260904211614 | 100 | 30 | 2.0 | 3.0 | 0.00 | 0.00 | 0.00 | 42 | 1012.3 |
| 20260904211110 | 99 | 100 | 3.0 | 3.0 | 0.00 | 0.00 | 0.00 | 42 | 1012.3 |
| 20260904210609 | 99 | 16 | 2.0 | 4.0 | 0.00 | 0.00 | 0.00 | 43 | 1012.4 |
| 20260904210105 | 99 | 67 | 2.0 | 5.0 | 0.00 | 0.00 | 0.00 | 43 | 1012.3 |
| 20260904205600 | 99 | 53 | 3.0 | 5.0 | 0.00 | 0.00 | 0.00 | 43 | 1012.4 |
| 20260904205057 | 100 | 102 | 4.0 | 6.0 | 0.00 | 0.00 | 0.00 | 42 | 1012.4 |
| 20260904204552 | 100 | 39 | 3.0 | 4.0 | 0.00 | 0.00 | 0.00 | 43 | 1012.6 |
| 20260904204048 | 99 | 93 | 3.0 | 3.0 | 0.00 | 0.00 | 0.00 | 43 | 1012.5 |
| 20260904203544 | 99 | 333 | 0.0 | 5.0 | 0.00 | 0.00 | 0.00 | 44 | 1012.6 |
| 20260904203040 | 99 | 96 | 3.0 | 4.0 | 0.00 | 0.00 | 0.00 | 44 | 1012.8 |
| 20260904202537 | 100 | 92 | 3.0 | 6.0 | 0.00 | 0.00 | 0.00 | 43 | 1012.8 |
| 20260904202033 | 100 | 3 | 2.0 | 5.0 | 0.00 | 0.00 | 0.00 | 44 | 1012.7 |
| 20260904201533 | 98 | 14 | 2.0 | 4.0 | 0.00 | 0.00 | 0.00 | 46 | 1012.9 |
| 20260904201028 | 98 | 58 | 4.0 | 9.0 | 0.00 | 0.00 | 0.00 | 44 | 1013.0 |
| 20260904200526 | 98 | 108 | 4.0 | 5.0 | 0.00 | 0.00 | 0.00 | 43 | 1013.1 |
| 20260904200022 | 99 | 109 | 7.0 | 9.0 | 0.00 | 0.00 | 0.00 | 42 | 1013.1 |
| 20260904195520 | 98 | 326 | 3.0 | 6.0 | 0.00 | 0.00 | 0.00 | 44 | 1013.2 |
| 20260904195020 | 98 | 103 | 1.0 | 4.0 | 0.00 | 0.00 | 0.00 | 45 | 1013.4 |
| 20260904194515 | 99 | 24 | 2.0 | 4.0 | 0.00 | 0.00 | 0.00 | 44 | 1013.5 |
| 20260904194009 | 98 | 95 | 2.0 | 6.0 | 0.00 | 0.00 | 0.00 | 45 | 1013.4 |